Time,TemperatureF,DewpointF,PressureIn,WindDirection,WindDirectionDegrees,WindSpeedMPH,WindSpeedGustMPH,Humidity,HourlyPrecipIn,Conditions,Clouds,dailyrainin,SoftwareType,DateUTC
2013-10-02 00:00:00,60.5,54.6,29.97,South,173,1.0,1.0,81,0.00,,,0.00,Wunderground v.1.15,2013-10-02 04:00:00,
2013-10-02 00:05:00,60.5,54.6,29.97,South,173,0.0,1.0,81,0.00,,,0.00,Wunderground v.1.15,2013-10-02 04:05:00,
2013-10-02 00:10:00,60.4,54.5,29.97,South,173,0.0,0.0,81,0.00,,,0.00,Wunderground v.1.15,2013-10-02 04:10:00,
2013-10-02 00:15:00,60.3,54.4,29.97,South,173,0.0,0.0,81,0.00,,,0.00,Wunderground v.1.15,2013-10-02 04:15:00,
2013-10-02 00:20:00,60.2,54.3,29.97,South,173,0.0,0.0,81,0.00,,,0.00,Wunderground v.1.15,2013-10-02 04:20:00,
2013-10-02 00:25:00,60.1,54.2,29.98,South,173,0.0,0.0,81,0.00,,,0.00,Wunderground v.1.15,2013-10-02 04:25:00,
2013-10-02 00:30:00,60.1,54.6,29.98,South,173,0.0,0.0,82,0.00,,,0.00,Wunderground v.1.15,2013-10-02 04:30:00,
2013-10-02 00:35:00,59.9,54.4,29.98,South,173,0.0,0.0,82,0.00,,,0.00,Wunderground v.1.15,2013-10-02 04:35:00,
2013-10-02 00:40:00,60.0,54.5,29.97,South,173,0.0,0.0,82,0.00,,,0.00,Wunderground v.1.15,2013-10-02 04:40:00,
2013-10-02 00:45:00,60.0,54.5,29.97,South,173,0.0,0.0,82,0.00,,,0.00,Wunderground v.1.15,2013-10-02 04:45:00,
2013-10-02 00:55:00,59.8,54.3,29.97,South,173,0.0,0.0,82,0.00,,,0.00,Wunderground v.1.15,2013-10-02 04:55:00,
2013-10-02 01:00:00,59.9,54.4,29.97,SSW,196,0.0,0.0,82,0.00,,,0.00,Wunderground v.1.15,2013-10-02 05:00:00,
2013-10-02 01:05:00,60.4,54.5,29.97,SSW,196,0.0,0.0,81,0.00,,,0.00,Wunderground v.1.15,2013-10-02 05:05:00,
2013-10-02 01:15:00,61.0,54.8,29.97,SW,236,0.0,0.0,80,0.00,,,0.00,Wunderground v.1.15,2013-10-02 05:15:00,
2013-10-02 01:20:00,61.3,54.7,29.97,South,188,0.0,0.0,79,0.00,,,0.00,Wunderground v.1.15,2013-10-02 05:20:00,
2013-10-02 01:25:00,61.6,54.7,29.97,SW,235,1.0,2.0,78,0.00,,,0.00,Wunderground v.1.15,2013-10-02 05:25:00,
2013-10-02 01:30:00,62.0,55.1,29.97,SSW,195,1.0,1.0,78,0.00,,,0.00,Wunderground v.1.15,2013-10-02 05:30:00,
2013-10-02 01:35:00,62.2,54.9,29.97,South,186,1.0,2.0,77,0.00,,,0.00,Wunderground v.1.15,2013-10-02 05:35:00,
2013-10-02 01:40:00,62.2,54.9,29.97,SSW,206,1.0,2.0,77,0.00,,,0.00,Wunderground v.1.15,2013-10-02 05:40:00,
2013-10-02 01:45:00,62.3,55.0,29.97,SSW,197,1.0,2.0,77,0.00,,,0.00,Wunderground v.1.15,2013-10-02 05:45:00,
2013-10-02 01:55:00,62.1,55.2,29.97,SSW,202,2.0,2.0,78,0.00,,,0.00,Wunderground v.1.15,2013-10-02 05:55:00,
2013-10-02 02:00:00,62.0,55.1,29.97,SW,236,2.0,5.0,78,0.00,,,0.00,Wunderground v.1.15,2013-10-02 06:00:00,
2013-10-02 02:10:00,61.9,55.0,29.97,South,188,1.0,1.0,78,0.00,,,0.00,Wunderground v.1.15,2013-10-02 06:10:00,
2013-10-02 02:15:00,62.0,55.1,29.97,WSW,244,1.0,1.0,78,0.00,,,0.00,Wunderground v.1.15,2013-10-02 06:15:00,
2013-10-02 02:20:00,62.1,55.2,29.96,SW,219,2.0,2.0,78,0.00,,,0.00,Wunderground v.1.15,2013-10-02 06:20:00,
2013-10-02 02:25:00,62.2,55.3,29.96,WSW,239,2.0,3.0,78,0.00,,,0.00,Wunderground v.1.15,2013-10-02 06:25:00,
2013-10-02 02:30:00,62.3,55.0,29.96,SSW,209,2.0,2.0,77,0.00,,,0.00,Wunderground v.1.15,2013-10-02 06:30:00,
2013-10-02 02:35:00,62.3,55.4,29.96,SW,221,2.0,2.0,78,0.00,,,0.00,Wunderground v.1.15,2013-10-02 06:35:00,
2013-10-02 02:40:00,62.4,55.1,29.96,SSW,202,3.0,4.0,77,0.00,,,0.00,Wunderground v.1.15,2013-10-02 06:40:00,
2013-10-02 02:45:00,62.4,55.1,29.96,SE,144,2.0,4.0,77,0.00,,,0.00,Wunderground v.1.15,2013-10-02 06:45:00,
2013-10-02 02:55:00,62.1,55.2,29.95,South,191,2.0,2.0,78,0.00,,,0.00,Wunderground v.1.15,2013-10-02 06:55:00,
2013-10-02 03:00:00,62.0,55.1,29.95,SSW,202,2.0,2.0,78,0.00,,,0.00,Wunderground v.1.15,2013-10-02 07:00:00,
2013-10-02 03:05:00,62.0,55.1,29.96,SSW,212,2.0,2.0,78,0.00,,,0.00,Wunderground v.1.15,2013-10-02 07:05:00,
2013-10-02 03:10:00,61.8,55.2,29.95,SW,219,2.0,2.0,79,0.00,,,0.00,Wunderground v.1.15,2013-10-02 07:10:00,
2013-10-02 03:20:00,61.3,55.1,29.95,SSW,211,2.0,2.0,80,0.00,,,0.00,Wunderground v.1.15,2013-10-02 07:20:00,
2013-10-02 03:30:00,61.1,54.9,29.96,SSW,205,1.0,1.0,80,0.00,,,0.00,Wunderground v.1.15,2013-10-02 07:30:00,
2013-10-02 03:35:00,60.9,55.0,29.96,WNW,298,1.0,5.0,81,0.00,,,0.00,Wunderground v.1.15,2013-10-02 07:35:00,
2013-10-02 03:40:00,60.8,54.9,29.95,SSW,194,1.0,2.0,81,0.00,,,0.00,Wunderground v.1.15,2013-10-02 07:40:00,
2013-10-02 03:45:00,60.7,54.8,29.95,SSW,210,1.0,4.0,81,0.00,,,0.00,Wunderground v.1.15,2013-10-02 07:45:00,
2013-10-02 03:50:00,60.6,54.7,29.95,SW,227,1.0,1.0,81,0.00,,,0.00,Wunderground v.1.15,2013-10-02 07:50:00,
2013-10-02 03:55:00,60.5,54.6,29.95,SW,236,1.0,1.0,81,0.00,,,0.00,Wunderground v.1.15,2013-10-02 07:55:00,
2013-10-02 04:00:00,60.5,55.0,29.95,SW,223,1.0,1.0,82,0.00,,,0.00,Wunderground v.1.15,2013-10-02 08:00:00,
2013-10-02 04:05:00,60.4,54.9,29.95,SW,223,1.0,1.0,82,0.00,,,0.00,Wunderground v.1.15,2013-10-02 08:05:00,
2013-10-02 04:10:00,60.0,54.5,29.95,SSW,198,0.0,0.0,82,0.00,,,0.00,Wunderground v.1.15,2013-10-02 08:10:00,
2013-10-02 04:20:00,59.5,54.3,29.95,SW,236,0.0,1.0,83,0.00,,,0.00,Wunderground v.1.15,2013-10-02 08:20:00,
2013-10-02 04:25:00,59.3,54.5,29.95,SW,219,0.0,1.0,84,0.00,,,0.00,Wunderground v.1.15,2013-10-02 08:25:00,
2013-10-02 04:35:00,58.8,54.3,29.94,SSW,206,0.0,0.0,85,0.00,,,0.00,Wunderground v.1.15,2013-10-02 08:35:00,
2013-10-02 04:40:00,58.7,54.2,29.95,SSW,203,0.0,0.0,85,0.00,,,0.00,Wunderground v.1.15,2013-10-02 08:40:00,
2013-10-02 04:45:00,58.8,54.3,29.95,SSW,213,1.0,1.0,85,0.00,,,0.00,Wunderground v.1.15,2013-10-02 08:45:00,
2013-10-02 04:50:00,58.8,54.3,29.95,SSW,206,1.0,3.0,85,0.00,,,0.00,Wunderground v.1.15,2013-10-02 08:50:00,
2013-10-02 04:55:00,58.9,54.4,29.95,SSE,162,1.0,4.0,85,0.00,,,0.00,Wunderground v.1.15,2013-10-02 08:55:00,
2013-10-02 05:00:00,59.2,54.7,29.94,SW,223,3.0,3.0,85,0.00,,,0.00,Wunderground v.1.15,2013-10-02 09:00:00,
2013-10-02 05:05:00,59.3,54.5,29.94,SSW,209,3.0,5.0,84,0.00,,,0.00,Wunderground v.1.15,2013-10-02 09:05:00,
2013-10-02 05:10:00,59.4,54.2,29.94,SSW,196,3.0,3.0,83,0.00,,,0.00,Wunderground v.1.15,2013-10-02 09:10:00,
2013-10-02 05:15:00,59.4,54.2,29.94,SW,228,1.0,6.0,83,0.00,,,0.00,Wunderground v.1.15,2013-10-02 09:15:00,
2013-10-02 05:25:00,59.4,54.2,29.94,SW,232,2.0,2.0,83,0.00,,,0.00,Wunderground v.1.15,2013-10-02 09:25:00,
2013-10-02 05:35:00,59.9,54.4,29.94,SSW,204,2.0,2.0,82,0.00,,,0.00,Wunderground v.1.15,2013-10-02 09:35:00,
2013-10-02 05:40:00,60.0,54.5,29.94,SW,217,1.0,2.0,82,0.00,,,0.00,Wunderground v.1.15,2013-10-02 09:40:00,
2013-10-02 05:45:00,60.0,54.5,29.95,SSW,207,1.0,2.0,82,0.00,,,0.00,Wunderground v.1.15,2013-10-02 09:45:00,
2013-10-02 05:50:00,59.8,54.3,29.94,SSW,197,0.0,4.0,82,0.00,,,0.00,Wunderground v.1.15,2013-10-02 09:50:00,
2013-10-02 05:55:00,59.6,54.1,29.94,South,178,1.0,4.0,82,0.00,,,0.00,Wunderground v.1.15,2013-10-02 09:55:00,
2013-10-02 06:00:00,59.6,54.1,29.94,SSW,196,2.0,2.0,82,0.00,,,0.00,Wunderground v.1.15,2013-10-02 10:00:00,
2013-10-02 06:05:00,59.5,54.0,29.94,SSW,208,2.0,2.0,82,0.00,,,0.00,Wunderground v.1.15,2013-10-02 10:05:00,
2013-10-02 06:10:00,59.4,53.9,29.94,South,189,2.0,2.0,82,0.00,,,0.00,Wunderground v.1.15,2013-10-02 10:10:00,
2013-10-02 06:15:00,59.3,54.1,29.94,SW,222,2.0,2.0,83,0.00,,,0.00,Wunderground v.1.15,2013-10-02 10:15:00,
2013-10-02 06:20:00,59.1,53.9,29.94,South,169,2.0,2.0,83,0.00,,,0.00,Wunderground v.1.15,2013-10-02 10:20:00,
2013-10-02 06:25:00,58.9,53.7,29.94,SSE,152,1.0,2.0,83,0.00,,,0.00,Wunderground v.1.15,2013-10-02 10:25:00,
2013-10-02 06:30:00,58.9,53.7,29.94,SSE,152,0.0,0.0,83,0.00,,,0.00,Wunderground v.1.15,2013-10-02 10:30:00,
2013-10-02 06:35:00,58.6,53.8,29.94,SSE,149,0.0,0.0,84,0.00,,,0.00,Wunderground v.1.15,2013-10-02 10:35:00,
2013-10-02 06:40:00,58.3,53.5,29.94,SSE,149,0.0,0.0,84,0.00,,,0.00,Wunderground v.1.15,2013-10-02 10:40:00,
2013-10-02 06:45:00,58.2,53.7,29.94,South,183,0.0,0.0,85,0.00,,,0.00,Wunderground v.1.15,2013-10-02 10:45:00,
2013-10-02 06:50:00,57.9,53.4,29.94,ESE,118,0.0,0.0,85,0.00,,,0.00,Wunderground v.1.15,2013-10-02 10:50:00,
2013-10-02 06:55:00,57.6,53.4,29.94,ESE,118,0.0,0.0,86,0.00,,,0.00,Wunderground v.1.15,2013-10-02 10:55:00,
2013-10-02 07:00:00,57.5,53.7,29.94,SSE,147,0.0,0.0,87,0.00,,,0.00,Wunderground v.1.15,2013-10-02 11:00:00,
2013-10-02 07:05:00,57.3,53.5,29.94,SE,146,0.0,0.0,87,0.00,,,0.00,Wunderground v.1.15,2013-10-02 11:05:00,
2013-10-02 07:10:00,57.5,53.7,29.94,SSE,147,0.0,2.0,87,0.00,,,0.00,Wunderground v.1.15,2013-10-02 11:10:00,
2013-10-02 07:15:00,57.7,53.9,29.94,South,181,1.0,2.0,87,0.00,,,0.00,Wunderground v.1.15,2013-10-02 11:15:00,
2013-10-02 07:20:00,57.9,53.7,29.94,South,181,1.0,1.0,86,0.00,,,0.00,Wunderground v.1.15,2013-10-02 11:20:00,
2013-10-02 07:25:00,58.1,53.9,29.94,South,181,0.0,1.0,86,0.00,,,0.00,Wunderground v.1.15,2013-10-02 11:25:00,
2013-10-02 07:30:00,58.4,53.9,29.94,South,191,0.0,3.0,85,0.00,,,0.00,Wunderground v.1.15,2013-10-02 11:30:00,
2013-10-02 07:35:00,58.7,54.2,29.94,South,186,0.0,3.0,85,0.00,,,0.00,Wunderground v.1.15,2013-10-02 11:35:00,
2013-10-02 07:40:00,59.1,53.9,29.94,SE,124,0.0,0.0,83,0.00,,,0.00,Wunderground v.1.15,2013-10-02 11:40:00,
2013-10-02 07:45:00,59.4,54.2,29.94,WSW,253,0.0,0.0,83,0.00,,,0.00,Wunderground v.1.15,2013-10-02 11:45:00,
2013-10-02 07:55:00,60.0,54.2,29.93,SW,229,1.0,2.0,81,0.00,,,0.00,Wunderground v.1.15,2013-10-02 11:55:00,
2013-10-02 08:00:00,60.5,54.3,29.93,SSW,200,2.0,2.0,80,0.00,,,0.00,Wunderground v.1.15,2013-10-02 12:00:00,
2013-10-02 08:10:00,61.3,54.4,29.94,SSW,211,2.0,2.0,78,0.00,,,0.00,Wunderground v.1.15,2013-10-02 12:10:00,
2013-10-02 08:15:00,61.8,54.9,29.94,SSW,209,2.0,2.0,78,0.00,,,0.00,Wunderground v.1.15,2013-10-02 12:15:00,
2013-10-02 08:20:00,62.3,55.0,29.94,West,266,1.0,2.0,77,0.00,,,0.00,Wunderground v.1.15,2013-10-02 12:20:00,
2013-10-02 08:25:00,62.4,54.7,29.94,SSW,202,1.0,2.0,76,0.00,,,0.00,Wunderground v.1.15,2013-10-02 12:25:00,
2013-10-02 08:30:00,62.4,54.4,29.94,South,175,1.0,4.0,75,0.00,,,0.00,Wunderground v.1.15,2013-10-02 12:30:00,
2013-10-02 08:35:00,62.6,54.6,29.93,SE,144,1.0,4.0,75,0.00,,,0.00,Wunderground v.1.15,2013-10-02 12:35:00,
2013-10-02 08:40:00,62.8,55.5,29.94,South,184,1.0,1.0,77,0.00,,,0.00,Wunderground v.1.15,2013-10-02 12:40:00,
2013-10-02 08:45:00,62.9,54.9,29.94,South,175,1.0,1.0,75,0.00,,,0.00,Wunderground v.1.15,2013-10-02 12:45:00,
2013-10-02 08:50:00,62.8,54.8,29.94,SSW,213,1.0,1.0,75,0.00,,,0.00,Wunderground v.1.15,2013-10-02 12:50:00,
2013-10-02 08:55:00,62.7,54.3,29.94,SW,228,1.0,2.0,74,0.00,,,0.00,Wunderground v.1.15,2013-10-02 12:55:00,
2013-10-02 09:00:00,62.7,54.7,29.94,South,189,1.0,1.0,75,0.00,,,0.00,Wunderground v.1.15,2013-10-02 13:00:00,
2013-10-02 09:05:00,62.9,54.9,29.94,SW,232,1.0,1.0,75,0.00,,,0.00,Wunderground v.1.15,2013-10-02 13:05:00,
2013-10-02 09:15:00,63.8,55.0,29.94,West,267,1.0,4.0,73,0.00,,,0.00,Wunderground v.1.15,2013-10-02 13:15:00,
2013-10-02 09:20:00,64.2,55.7,29.94,SSW,205,1.0,1.0,74,0.00,,,0.00,Wunderground v.1.15,2013-10-02 13:20:00,
2013-10-02 09:25:00,64.6,56.1,29.94,WSW,246,1.0,2.0,74,0.00,,,0.00,Wunderground v.1.15,2013-10-02 13:25:00,
2013-10-02 09:30:00,64.9,55.7,29.94,WSW,246,2.0,3.0,72,0.00,,,0.00,Wunderground v.1.15,2013-10-02 13:30:00,
2013-10-02 09:35:00,65.1,55.5,29.94,West,271,2.0,3.0,71,0.00,,,0.00,Wunderground v.1.15,2013-10-02 13:35:00,
2013-10-02 09:40:00,65.5,55.5,29.94,WSW,257,1.0,5.0,70,0.00,,,0.00,Wunderground v.1.15,2013-10-02 13:40:00,
2013-10-02 09:50:00,66.1,55.6,29.94,SSW,192,2.0,3.0,69,0.00,,,0.00,Wunderground v.1.15,2013-10-02 13:50:00,
2013-10-02 09:55:00,66.3,55.8,29.94,WSW,240,2.0,3.0,69,0.00,,,0.00,Wunderground v.1.15,2013-10-02 13:55:00,
2013-10-02 10:00:00,66.6,56.9,29.94,WSW,239,1.0,3.0,71,0.00,,,0.00,Wunderground v.1.15,2013-10-02 14:00:00,
2013-10-02 10:05:00,66.9,56.0,29.94,WSW,254,1.0,3.0,68,0.00,,,0.00,Wunderground v.1.15,2013-10-02 14:05:00,
2013-10-02 10:10:00,67.2,56.3,29.94,WSW,255,1.0,3.0,68,0.00,,,0.00,Wunderground v.1.15,2013-10-02 14:10:00,
2013-10-02 10:15:00,67.2,56.3,29.94,SSW,199,2.0,3.0,68,0.00,,,0.00,Wunderground v.1.15,2013-10-02 14:15:00,
2013-10-02 10:20:00,67.3,56.4,29.94,SSW,198,2.0,5.0,68,0.00,,,0.00,Wunderground v.1.15,2013-10-02 14:20:00,
2013-10-02 10:25:00,67.4,56.9,29.94,WSW,241,2.0,5.0,69,0.00,,,0.00,Wunderground v.1.15,2013-10-02 14:25:00,
2013-10-02 10:30:00,67.6,56.7,29.94,SSW,206,2.0,2.0,68,0.00,,,0.00,Wunderground v.1.15,2013-10-02 14:30:00,
2013-10-02 10:35:00,67.8,57.3,29.94,WSW,248,2.0,2.0,69,0.00,,,0.00,Wunderground v.1.15,2013-10-02 14:35:00,
2013-10-02 10:40:00,68.1,57.1,29.94,SW,233,1.0,1.0,68,0.00,,,0.00,Wunderground v.1.15,2013-10-02 14:40:00,
2013-10-02 10:45:00,68.4,57.0,29.93,West,265,1.0,1.0,67,0.00,,,0.00,Wunderground v.1.15,2013-10-02 14:45:00,
2013-10-02 10:50:00,68.7,57.3,29.93,SSW,202,1.0,1.0,67,0.00,,,0.00,Wunderground v.1.15,2013-10-02 14:50:00,
2013-10-02 10:55:00,69.0,57.2,29.93,West,279,1.0,3.0,66,0.00,,,0.00,Wunderground v.1.15,2013-10-02 14:55:00,
2013-10-02 11:00:00,69.2,57.4,29.92,SW,235,2.0,5.0,66,0.00,,,0.00,Wunderground v.1.15,2013-10-02 15:00:00,
2013-10-02 11:05:00,69.5,57.6,29.93,SSW,211,2.0,5.0,66,0.00,,,0.00,Wunderground v.1.15,2013-10-02 15:05:00,
2013-10-02 11:10:00,69.8,58.3,29.93,WSW,245,1.0,2.0,67,0.00,,,0.00,Wunderground v.1.15,2013-10-02 15:10:00,
2013-10-02 11:15:00,70.2,58.7,29.93,West,260,1.0,2.0,67,0.00,,,0.00,Wunderground v.1.15,2013-10-02 15:15:00,
2013-10-02 11:20:00,70.5,57.7,29.92,WSW,246,1.0,1.0,64,0.00,,,0.00,Wunderground v.1.15,2013-10-02 15:20:00,
2013-10-02 11:25:00,70.5,57.7,29.93,SSW,196,2.0,2.0,64,0.00,,,0.00,Wunderground v.1.15,2013-10-02 15:25:00,
2013-10-02 11:30:00,70.6,59.9,29.93,SSW,209,2.0,2.0,69,0.00,,,0.00,Wunderground v.1.15,2013-10-02 15:30:00,
2013-10-02 11:35:00,71.0,59.1,29.93,SSW,210,1.0,2.0,66,0.00,,,0.00,Wunderground v.1.15,2013-10-02 15:35:00,
2013-10-02 11:40:00,71.5,59.5,29.93,WSW,242,1.0,1.0,66,0.00,,,0.00,Wunderground v.1.15,2013-10-02 15:40:00,
2013-10-02 11:45:00,72.0,60.0,29.93,WSW,248,1.0,1.0,66,0.00,,,0.00,Wunderground v.1.15,2013-10-02 15:45:00,
2013-10-02 11:50:00,72.2,58.5,29.92,SW,223,1.0,1.0,62,0.00,,,0.00,Wunderground v.1.15,2013-10-02 15:50:00,
2013-10-02 11:55:00,72.2,58.9,29.92,West,267,2.0,3.0,63,0.00,,,0.00,Wunderground v.1.15,2013-10-02 15:55:00,
2013-10-02 12:00:00,72.2,58.9,29.92,SW,219,1.0,1.0,63,0.00,,,0.00,Wunderground v.1.15,2013-10-02 16:00:00,
2013-10-02 12:10:00,72.5,59.6,29.92,WSW,246,1.0,1.0,64,0.00,,,0.00,Wunderground v.1.15,2013-10-02 16:10:00,
2013-10-02 12:15:00,72.6,59.3,29.92,WSW,250,1.0,1.0,63,0.00,,,0.00,Wunderground v.1.15,2013-10-02 16:15:00,
2013-10-02 12:20:00,72.7,59.4,29.92,WSW,247,1.0,3.0,63,0.00,,,0.00,Wunderground v.1.15,2013-10-02 16:20:00,
2013-10-02 12:25:00,73.0,59.7,29.92,West,261,2.0,3.0,63,0.00,,,0.00,Wunderground v.1.15,2013-10-02 16:25:00,
2013-10-02 12:30:00,73.3,59.9,29.92,WSW,242,1.0,3.0,63,0.00,,,0.00,Wunderground v.1.15,2013-10-02 16:30:00,
2013-10-02 12:35:00,73.6,60.2,29.92,West,281,1.0,3.0,63,0.00,,,0.00,Wunderground v.1.15,2013-10-02 16:35:00,
2013-10-02 12:40:00,74.0,60.6,29.92,SSW,196,1.0,1.0,63,0.00,,,0.00,Wunderground v.1.15,2013-10-02 16:40:00,
2013-10-02 12:50:00,74.8,60.4,29.92,NW,317,1.0,6.0,61,0.00,,,0.00,Wunderground v.1.15,2013-10-02 16:50:00,
2013-10-02 12:55:00,74.4,59.6,29.92,WNW,292,3.0,6.0,60,0.00,,,0.00,Wunderground v.1.15,2013-10-02 16:55:00,
2013-10-02 13:00:00,74.1,59.8,29.92,NNW,327,4.0,4.0,61,0.00,,,0.00,Wunderground v.1.15,2013-10-02 17:00:00,
2013-10-02 13:05:00,74.1,60.7,29.92,NW,319,3.0,4.0,63,0.00,,,0.00,Wunderground v.1.15,2013-10-02 17:05:00,
2013-10-02 13:10:00,74.3,60.9,29.92,NW,309,2.0,2.0,63,0.00,,,0.00,Wunderground v.1.15,2013-10-02 17:10:00,
2013-10-02 13:15:00,73.8,60.0,29.92,WNW,300,3.0,6.0,62,0.00,,,0.00,Wunderground v.1.15,2013-10-02 17:15:00,
2013-10-02 13:25:00,73.7,60.3,29.91,WSW,256,3.0,3.0,63,0.00,,,0.00,Wunderground v.1.15,2013-10-02 17:25:00,
2013-10-02 13:30:00,73.7,58.9,29.91,WSW,241,2.0,2.0,60,0.00,,,0.00,Wunderground v.1.15,2013-10-02 17:30:00,
2013-10-02 13:35:00,73.9,59.6,29.91,WNW,297,2.0,3.0,61,0.00,,,0.00,Wunderground v.1.15,2013-10-02 17:35:00,
2013-10-02 13:40:00,74.1,60.7,29.91,WNW,302,3.0,6.0,63,0.00,,,0.00,Wunderground v.1.15,2013-10-02 17:40:00,
2013-10-02 13:45:00,74.5,59.7,29.91,WSW,241,3.0,6.0,60,0.00,,,0.00,Wunderground v.1.15,2013-10-02 17:45:00,
2013-10-02 13:50:00,74.9,60.5,29.91,NW,317,3.0,4.0,61,0.00,,,0.00,Wunderground v.1.15,2013-10-02 17:50:00,
2013-10-02 13:55:00,75.2,58.4,29.91,SW,225,3.0,4.0,56,0.00,,,0.00,Wunderground v.1.15,2013-10-02 17:55:00,
2013-10-02 14:00:00,75.2,58.9,29.91,SW,223,3.0,3.0,57,0.00,,,0.00,Wunderground v.1.15,2013-10-02 18:00:00,
2013-10-02 14:05:00,75.2,59.4,29.91,WNW,293,3.0,3.0,58,0.00,,,0.00,Wunderground v.1.15,2013-10-02 18:05:00,
2013-10-02 14:10:00,75.3,58.5,29.91,West,271,3.0,3.0,56,0.00,,,0.00,Wunderground v.1.15,2013-10-02 18:10:00,
2013-10-02 14:15:00,75.6,58.8,29.91,West,279,3.0,4.0,56,0.00,,,0.00,Wunderground v.1.15,2013-10-02 18:15:00,
2013-10-02 14:25:00,75.7,57.9,29.91,West,263,4.0,9.0,54,0.00,,,0.00,Wunderground v.1.15,2013-10-02 18:25:00,
2013-10-02 14:30:00,75.5,58.2,29.90,SW,224,4.0,5.0,55,0.00,,,0.00,Wunderground v.1.15,2013-10-02 18:30:00,
2013-10-02 14:35:00,75.2,57.9,29.90,WNW,284,4.0,5.0,55,0.00,,,0.00,Wunderground v.1.15,2013-10-02 18:35:00,
2013-10-02 14:40:00,75.2,57.9,29.90,WSW,244,4.0,4.0,55,0.00,,,0.00,Wunderground v.1.15,2013-10-02 18:40:00,
2013-10-02 14:45:00,75.2,57.4,29.90,WSW,244,4.0,4.0,54,0.00,,,0.00,Wunderground v.1.15,2013-10-02 18:45:00,
2013-10-02 14:55:00,74.9,56.6,29.90,West,261,4.0,5.0,53,0.00,,,0.00,Wunderground v.1.15,2013-10-02 18:55:00,
2013-10-02 15:00:00,74.7,55.9,29.90,WNW,291,5.0,9.0,52,0.00,,,0.00,Wunderground v.1.15,2013-10-02 19:00:00,
2013-10-02 15:05:00,74.5,55.2,29.90,South,188,6.0,9.0,51,0.00,,,0.00,Wunderground v.1.15,2013-10-02 19:05:00,
2013-10-02 15:10:00,74.3,56.1,29.90,WNW,286,6.0,6.0,53,0.00,,,0.00,Wunderground v.1.15,2013-10-02 19:10:00,
2013-10-02 15:15:00,74.2,56.0,29.90,WSW,254,5.0,6.0,53,0.00,,,0.00,Wunderground v.1.15,2013-10-02 19:15:00,
2013-10-02 15:20:00,74.4,55.6,29.90,NW,319,4.0,4.0,52,0.00,,,0.00,Wunderground v.1.15,2013-10-02 19:20:00,
2013-10-02 15:25:00,74.5,55.7,29.90,WSW,242,4.0,6.0,52,0.00,,,0.00,Wunderground v.1.15,2013-10-02 19:25:00,
2013-10-02 15:30:00,74.4,56.2,29.90,WSW,258,5.0,6.0,53,0.00,,,0.00,Wunderground v.1.15,2013-10-02 19:30:00,
2013-10-02 15:35:00,74.2,54.9,29.90,SW,219,6.0,6.0,51,0.00,,,0.00,Wunderground v.1.15,2013-10-02 19:35:00,
2013-10-02 15:40:00,74.1,55.9,29.90,WNW,287,5.0,5.0,53,0.00,,,0.00,Wunderground v.1.15,2013-10-02 19:40:00,
2013-10-02 15:45:00,74.3,56.6,29.90,West,272,4.0,5.0,54,0.00,,,0.00,Wunderground v.1.15,2013-10-02 19:45:00,
2013-10-02 15:50:00,74.6,55.8,29.90,WNW,289,3.0,3.0,52,0.00,,,0.00,Wunderground v.1.15,2013-10-02 19:50:00,
2013-10-02 15:55:00,74.6,55.3,29.90,WSW,256,3.0,3.0,51,0.00,,,0.00,Wunderground v.1.15,2013-10-02 19:55:00,
2013-10-02 16:00:00,74.5,55.2,29.89,SSW,202,4.0,4.0,51,0.00,,,0.00,Wunderground v.1.15,2013-10-02 20:00:00,
2013-10-02 16:05:00,74.5,54.6,29.89,SW,219,4.0,4.0,50,0.00,,,0.00,Wunderground v.1.15,2013-10-02 20:05:00,
2013-10-02 16:10:00,74.6,55.3,29.89,SSW,200,4.0,4.0,51,0.00,,,0.00,Wunderground v.1.15,2013-10-02 20:10:00,
2013-10-02 16:15:00,74.8,55.5,29.89,West,260,3.0,4.0,51,0.00,,,0.00,Wunderground v.1.15,2013-10-02 20:15:00,
2013-10-02 16:20:00,74.9,56.6,29.89,North,9,2.0,2.0,53,0.00,,,0.00,Wunderground v.1.15,2013-10-02 20:20:00,
2013-10-02 16:25:00,75.1,55.7,29.89,WSW,242,2.0,4.0,51,0.00,,,0.00,Wunderground v.1.15,2013-10-02 20:25:00,
2013-10-02 16:30:00,75.0,55.6,29.89,SW,235,2.0,2.0,51,0.00,,,0.00,Wunderground v.1.15,2013-10-02 20:30:00,
2013-10-02 16:35:00,74.9,55.0,29.89,SW,221,3.0,3.0,50,0.00,,,0.00,Wunderground v.1.15,2013-10-02 20:35:00,
2013-10-02 16:45:00,74.7,55.9,29.90,SSW,198,3.0,5.0,52,0.00,,,0.00,Wunderground v.1.15,2013-10-02 20:45:00,
2013-10-02 16:50:00,74.8,56.0,29.89,WSW,250,1.0,1.0,52,0.00,,,0.00,Wunderground v.1.15,2013-10-02 20:50:00,
2013-10-02 16:55:00,74.8,56.0,29.89,WSW,244,1.0,1.0,52,0.00,,,0.00,Wunderground v.1.15,2013-10-02 20:55:00,
2013-10-02 17:00:00,74.4,55.1,29.89,West,279,2.0,2.0,51,0.00,,,0.00,Wunderground v.1.15,2013-10-02 21:00:00,
2013-10-02 17:10:00,73.6,54.9,29.90,East,100,2.0,4.0,52,0.00,,,0.00,Wunderground v.1.15,2013-10-02 21:10:00,
2013-10-02 17:15:00,73.1,55.5,29.90,WSW,250,3.0,4.0,54,0.00,,,0.00,Wunderground v.1.15,2013-10-02 21:15:00,
2013-10-02 17:20:00,72.9,54.8,29.90,WSW,250,3.0,3.0,53,0.00,,,0.00,Wunderground v.1.15,2013-10-02 21:20:00,
2013-10-02 17:25:00,72.7,55.1,29.90,WSW,243,2.0,4.0,54,0.00,,,0.00,Wunderground v.1.15,2013-10-02 21:25:00,
2013-10-02 17:30:00,72.4,54.8,29.90,WSW,257,3.0,4.0,54,0.00,,,0.00,Wunderground v.1.15,2013-10-02 21:30:00,
2013-10-02 17:40:00,72.2,54.6,29.91,SW,234,4.0,4.0,54,0.00,,,0.00,Wunderground v.1.15,2013-10-02 21:40:00,
2013-10-02 17:50:00,72.0,53.9,29.91,West,269,4.0,6.0,53,0.00,,,0.00,Wunderground v.1.15,2013-10-02 21:50:00,
2013-10-02 17:55:00,71.7,54.2,29.91,NW,306,4.0,6.0,54,0.00,,,0.00,Wunderground v.1.15,2013-10-02 21:55:00,
2013-10-02 18:00:00,71.4,53.9,29.91,WSW,242,3.0,3.0,54,0.00,,,0.00,Wunderground v.1.15,2013-10-02 22:00:00,
2013-10-02 18:05:00,71.2,53.7,29.91,SSW,202,4.0,4.0,54,0.00,,,0.00,Wunderground v.1.15,2013-10-02 22:05:00,
2013-10-02 18:10:00,71.1,54.1,29.92,SSW,213,3.0,3.0,55,0.00,,,0.00,Wunderground v.1.15,2013-10-02 22:10:00,
2013-10-02 18:15:00,70.9,53.9,29.92,NNW,333,2.0,3.0,55,0.00,,,0.00,Wunderground v.1.15,2013-10-02 22:15:00,
2013-10-02 18:20:00,70.5,53.6,29.92,SSW,213,1.0,2.0,55,0.00,,,0.00,Wunderground v.1.15,2013-10-02 22:20:00,
2013-10-02 18:25:00,70.3,53.9,29.92,SW,235,1.0,2.0,56,0.00,,,0.00,Wunderground v.1.15,2013-10-02 22:25:00,
2013-10-02 18:30:00,70.3,53.9,29.93,WSW,245,3.0,3.0,56,0.00,,,0.00,Wunderground v.1.15,2013-10-02 22:30:00,
2013-10-02 18:40:00,69.8,53.9,29.93,SSW,202,1.0,3.0,57,0.00,,,0.00,Wunderground v.1.15,2013-10-02 22:40:00,
2013-10-02 18:45:00,69.7,53.8,29.93,SSW,211,2.0,8.0,57,0.00,,,0.00,Wunderground v.1.15,2013-10-02 22:45:00,
2013-10-02 18:50:00,70.0,53.6,29.93,WSW,237,4.0,5.0,56,0.00,,,0.00,Wunderground v.1.15,2013-10-02 22:50:00,
2013-10-02 18:55:00,69.9,53.5,29.93,South,190,4.0,5.0,56,0.00,,,0.00,Wunderground v.1.15,2013-10-02 22:55:00,
2013-10-02 19:00:00,69.9,53.5,29.93,SW,226,1.0,1.0,56,0.00,,,0.00,Wunderground v.1.15,2013-10-02 23:00:00,
2013-10-02 19:05:00,69.8,52.9,29.93,WSW,249,2.0,2.0,55,0.00,,,0.00,Wunderground v.1.15,2013-10-02 23:05:00,
2013-10-02 19:10:00,69.8,52.9,29.93,SSW,200,2.0,2.0,55,0.00,,,0.00,Wunderground v.1.15,2013-10-02 23:10:00,
2013-10-02 19:20:00,69.6,52.7,29.94,South,191,2.0,2.0,55,0.00,,,0.00,Wunderground v.1.15,2013-10-02 23:20:00,
2013-10-02 19:25:00,69.7,52.8,29.94,WSW,237,2.0,2.0,55,0.00,,,0.00,Wunderground v.1.15,2013-10-02 23:25:00,
2013-10-02 19:30:00,69.7,52.8,29.95,SW,227,2.0,3.0,55,0.00,,,0.00,Wunderground v.1.15,2013-10-02 23:30:00,
2013-10-02 19:40:00,69.6,52.7,29.95,WSW,239,2.0,2.0,55,0.00,,,0.00,Wunderground v.1.15,2013-10-02 23:40:00,
2013-10-02 19:45:00,69.7,52.8,29.95,SSW,211,3.0,6.0,55,0.00,,,0.00,Wunderground v.1.15,2013-10-02 23:45:00,
2013-10-02 19:55:00,69.5,52.6,29.95,WNW,302,2.0,3.0,55,0.00,,,0.00,Wunderground v.1.15,2013-10-02 23:55:00,
2013-10-02 20:00:00,69.3,52.9,29.96,SW,235,1.0,1.0,56,0.00,,,0.00,Wunderground v.1.15,2013-10-03 00:00:00,
2013-10-02 20:10:00,68.5,52.7,29.96,NE,44,1.0,1.0,57,0.00,,,0.00,Wunderground v.1.15,2013-10-03 00:10:00,
2013-10-02 20:15:00,68.0,53.1,29.97,South,169,1.0,1.0,59,0.00,,,0.00,Wunderground v.1.15,2013-10-03 00:15:00,
2013-10-02 20:20:00,67.5,53.6,29.97,South,169,0.0,1.0,61,0.00,,,0.00,Wunderground v.1.15,2013-10-03 00:20:00,
2013-10-02 20:25:00,66.8,52.9,29.97,South,169,0.0,1.0,61,0.00,,,0.00,Wunderground v.1.15,2013-10-03 00:25:00,
2013-10-02 20:35:00,65.6,53.1,29.97,South,169,1.0,2.0,64,0.00,,,0.00,Wunderground v.1.15,2013-10-03 00:35:00,
2013-10-02 20:40:00,65.1,53.0,29.97,South,169,2.0,3.0,65,0.00,,,0.00,Wunderground v.1.15,2013-10-03 00:40:00,
2013-10-02 20:45:00,64.7,53.1,29.98,South,169,2.0,3.0,66,0.00,,,0.00,Wunderground v.1.15,2013-10-03 00:45:00,
2013-10-02 20:50:00,64.3,53.5,29.98,South,169,2.0,2.0,68,0.00,,,0.00,Wunderground v.1.15,2013-10-03 00:50:00,
2013-10-02 20:55:00,64.0,53.2,29.98,South,175,2.0,2.0,68,0.00,,,0.00,Wunderground v.1.15,2013-10-03 00:55:00,
2013-10-02 21:00:00,63.9,53.1,29.98,SSE,163,2.0,2.0,68,0.00,,,0.00,Wunderground v.1.15,2013-10-03 01:00:00,
2013-10-02 21:05:00,63.8,52.6,29.98,South,171,1.0,2.0,67,0.00,,,0.00,Wunderground v.1.15,2013-10-03 01:05:00,
2013-10-02 21:10:00,63.7,52.9,29.98,South,171,2.0,2.0,68,0.00,,,0.00,Wunderground v.1.15,2013-10-03 01:10:00,
2013-10-02 21:15:00,63.7,52.5,29.98,South,169,1.0,2.0,67,0.00,,,0.00,Wunderground v.1.15,2013-10-03 01:15:00,
2013-10-02 21:20:00,63.7,52.9,29.98,South,169,2.0,2.0,68,0.00,,,0.00,Wunderground v.1.15,2013-10-03 01:20:00,
2013-10-02 21:25:00,63.4,52.7,29.98,South,169,2.0,2.0,68,0.00,,,0.00,Wunderground v.1.15,2013-10-03 01:25:00,
2013-10-02 21:30:00,63.2,52.5,29.98,South,169,2.0,2.0,68,0.00,,,0.00,Wunderground v.1.15,2013-10-03 01:30:00,
2013-10-02 21:35:00,62.9,52.2,29.98,South,169,2.0,3.0,68,0.00,,,0.00,Wunderground v.1.15,2013-10-03 01:35:00,
2013-10-02 21:45:00,62.7,52.0,29.98,South,169,2.0,3.0,68,0.00,,,0.00,Wunderground v.1.15,2013-10-03 01:45:00,
2013-10-02 21:55:00,62.5,51.8,29.99,South,169,2.0,2.0,68,0.00,,,0.00,Wunderground v.1.15,2013-10-03 01:55:00,
2013-10-02 22:00:00,62.4,51.3,29.99,South,175,2.0,3.0,67,0.00,,,0.00,Wunderground v.1.15,2013-10-03 02:00:00,
2013-10-02 22:10:00,62.3,51.2,29.99,South,178,2.0,2.0,67,0.00,,,0.00,Wunderground v.1.15,2013-10-03 02:10:00,
2013-10-02 22:15:00,62.2,51.1,29.99,South,180,1.0,2.0,67,0.00,,,0.00,Wunderground v.1.15,2013-10-03 02:15:00,
2013-10-02 22:20:00,62.3,50.8,30.00,South,180,1.0,1.0,66,0.00,,,0.00,Wunderground v.1.15,2013-10-03 02:20:00,
2013-10-02 22:25:00,62.1,50.6,30.00,South,180,0.0,1.0,66,0.00,,,0.00,Wunderground v.1.15,2013-10-03 02:25:00,
2013-10-02 22:30:00,62.0,50.5,30.00,South,176,1.0,1.0,66,0.00,,,0.00,Wunderground v.1.15,2013-10-03 02:30:00,
2013-10-02 22:35:00,61.8,49.9,30.00,SSE,157,2.0,2.0,65,0.00,,,0.00,Wunderground v.1.15,2013-10-03 02:35:00,
2013-10-02 22:40:00,62.1,49.8,30.01,SSE,157,2.0,2.0,64,0.00,,,0.00,Wunderground v.1.15,2013-10-03 02:40:00,
2013-10-02 22:45:00,62.3,49.5,30.01,SSE,155,2.0,2.0,63,0.00,,,0.00,Wunderground v.1.15,2013-10-03 02:45:00,
2013-10-02 22:50:00,62.3,49.5,30.00,SSE,157,2.0,3.0,63,0.00,,,0.00,Wunderground v.1.15,2013-10-03 02:50:00,
2013-10-02 22:55:00,62.6,50.2,30.01,South,173,2.0,3.0,64,0.00,,,0.00,Wunderground v.1.15,2013-10-03 02:55:00,
2013-10-02 23:00:00,62.5,49.7,30.01,South,174,2.0,2.0,63,0.00,,,0.00,Wunderground v.1.15,2013-10-03 03:00:00,
2013-10-02 23:10:00,62.4,49.2,30.01,South,175,1.0,3.0,62,0.00,,,0.00,Wunderground v.1.15,2013-10-03 03:10:00,
2013-10-02 23:15:00,62.9,48.3,30.01,South,180,2.0,3.0,59,0.00,,,0.00,Wunderground v.1.15,2013-10-03 03:15:00,
2013-10-02 23:20:00,63.8,47.8,30.01,SW,223,3.0,4.0,56,0.00,,,0.00,Wunderground v.1.15,2013-10-03 03:20:00,
2013-10-02 23:25:00,65.0,47.4,30.02,SW,232,3.0,4.0,53,0.00,,,0.00,Wunderground v.1.15,2013-10-03 03:25:00,
2013-10-02 23:30:00,65.4,48.3,30.02,SW,221,2.0,2.0,54,0.00,,,0.00,Wunderground v.1.15,2013-10-03 03:30:00,
2013-10-02 23:35:00,65.3,47.7,30.02,WSW,238,1.0,2.0,53,0.00,,,0.00,Wunderground v.1.15,2013-10-03 03:35:00,
2013-10-02 23:40:00,65.2,47.6,30.02,WNW,299,2.0,2.0,53,0.00,,,0.00,Wunderground v.1.15,2013-10-03 03:40:00,
2013-10-02 23:45:00,65.2,47.6,30.02,SW,217,1.0,2.0,53,0.00,,,0.00,Wunderground v.1.15,2013-10-03 03:45:00,
2013-10-02 23:50:00,65.2,48.1,30.03,SW,229,1.0,1.0,54,0.00,,,0.00,Wunderground v.1.15,2013-10-03 03:50:00,
2013-10-02 23:55:00,65.1,47.5,30.03,NW,311,1.0,1.0,53,0.00,,,0.00,Wunderground v.1.15,2013-10-03 03:55:00,